Albertville, AL

3:27 AM CDT on August 27, 2016 (GMT -0500)
Albertville

Weather History for K8A0 - November, 2012

Change the Weather History Date:

Friday, November 16, 2012

  Actual Average (KGAD) Record (KGAD)
Temperature  
Mean Temperature 48 °F -  
Max Temperature 60 °F 60 °F 77 °F (1931)
Min Temperature 35 °F 37 °F 15 °F (1940)
Degree Days  
Heating Degree Days 18    
Moisture  
Dew Point 32 °F    
Average Humidity 60    
Maximum Humidity 100    
Minimum Humidity 25    
Precipitation  
Precipitation 0.00 in - - ()
Sea Level Pressure  
Sea Level Pressure 30.28 in    
Wind  
Wind Speed 5 mph (NNE)    
Max Wind Speed 9 mph    
Max Gust Speed -    
Visibility 10 miles    
Events      
Averages and records for this station are not official NWS values.
T = Trace of Precipitation, MM = Missing Value Source: NWS Daily Summary

Daily Weather History Graph

Daily Weather History Graph

Search for Another Location

Airport or City:

Trip Planner

Search our weather history database for the weather conditions in past years. The results will help you decide how hot, cold, wet, or windy it might be!

Date:

Astronomy

Nov. 16, 2012 Rise Set
Actual Time 6:19 AM CST 4:40 PM CST
Civil Twilight 5:52 AM CST 5:06 PM CST
Nautical Twilight 5:22 AM CST 5:37 PM CST
Astronomical Twilight 4:52 AM CST 6:06 PM CST
Moon 9:11 AM CST (11/16) 7:40 PM CST (11/16)
Length of Visible Light 11h 14m
Length of Day
10h 20m
Waxing Crescent, 12% of the Moon is Illuminated
Nov 16
Waxing Crescent
Nov 20
First Quarter
Nov 28
Full
Dec 6
Last Quarter
Dec 13
New

Hourly Weather History & Observations

Time (CST) Temp. Windchill Dew Point Humidity Pressure Visibility Wind Dir Wind Speed Gust Speed Precip Events Conditions
12:15 AM 42.8 °F 40.1 °F 33.8 °F 70% 30.26 in 10.0 mi North 4.6 mph - N/A   Unknown
12:35 AM 41.0 °F 38.0 °F 33.8 °F 76% 30.26 in 10.0 mi NNE 4.6 mph - N/A   Unknown
12:55 AM 41.0 °F 37.1 °F 33.8 °F 76% 30.26 in 10.0 mi NNE 5.8 mph - N/A   Unknown
1:15 AM 41.0 °F 37.1 °F 33.8 °F 76% 30.25 in 10.0 mi NNE 5.8 mph - N/A   Unknown
1:35 AM 41.0 °F 37.1 °F 33.8 °F 76% 30.25 in 10.0 mi NNE 5.8 mph - N/A   Unknown
1:55 AM 39.2 °F 35.0 °F 33.8 °F 81% 30.25 in 10.0 mi NNE 5.8 mph - N/A   Unknown
2:15 AM 39.2 °F 35.9 °F 33.8 °F 81% 30.25 in 10.0 mi NE 4.6 mph - N/A   Unknown
2:35 AM 37.4 °F 34.9 °F 33.8 °F 87% 30.26 in 10.0 mi North 3.5 mph - N/A   Unknown
2:55 AM 37.4 °F - 33.8 °F 87% 30.25 in 10.0 mi Calm Calm - N/A   Unknown
3:15 AM 35.6 °F 32.8 °F 35.6 °F 100% 30.25 in 10.0 mi NE 3.5 mph - N/A   Unknown
3:35 AM 37.4 °F 34.9 °F 35.6 °F 93% 30.26 in 10.0 mi NNE 3.5 mph - N/A   Unknown
3:55 AM 37.4 °F 33.8 °F 33.8 °F 87% 30.25 in 10.0 mi NE 4.6 mph - N/A   Unknown
4:15 AM 35.6 °F 32.8 °F 35.6 °F 100% 30.26 in 10.0 mi ENE 3.5 mph - N/A   Unknown
4:35 AM 37.4 °F 33.8 °F 37.4 °F 100% 30.26 in 10.0 mi NE 4.6 mph - N/A   Unknown
4:55 AM 35.6 °F 32.8 °F 35.6 °F 100% 30.27 in 10.0 mi NE 3.5 mph - N/A   Unknown
5:15 AM 35.6 °F 31.7 °F 35.6 °F 100% 30.26 in 10.0 mi NE 4.6 mph - N/A   Unknown
5:35 AM 35.6 °F 31.7 °F 35.6 °F 100% 30.26 in 10.0 mi NE 4.6 mph - N/A   Unknown
5:55 AM 37.4 °F 33.8 °F 37.4 °F 100% 30.27 in 10.0 mi NE 4.6 mph - N/A   Unknown
6:15 AM 35.6 °F 31.7 °F 35.6 °F 100% 30.28 in 10.0 mi NE 4.6 mph - N/A   Unknown
6:35 AM 35.6 °F 31.7 °F 35.6 °F 100% 30.28 in 10.0 mi NNE 4.6 mph - N/A   Unknown
6:55 AM 37.4 °F 33.8 °F 35.6 °F 93% 30.29 in 10.0 mi NE 4.6 mph - N/A   Unknown
7:15 AM 37.4 °F - 33.8 °F 87% 30.30 in 10.0 mi Calm Calm - N/A   Unknown
7:35 AM 41.0 °F - 33.8 °F 76% 30.30 in 10.0 mi Calm Calm - N/A   Unknown
7:55 AM 42.8 °F 41.1 °F 33.8 °F 70% 30.31 in 10.0 mi NE 3.5 mph - N/A   Unknown
8:15 AM 44.6 °F 42.2 °F 33.8 °F 66% 30.31 in 10.0 mi NE 4.6 mph - N/A   Unknown
8:35 AM 48.2 °F - 33.8 °F 58% 30.32 in 10.0 mi NNE 4.6 mph - N/A   Unknown
8:55 AM 50.0 °F - 33.8 °F 54% 30.32 in 10.0 mi NE 5.8 mph - N/A   Unknown
9:15 AM 50.0 °F - 33.8 °F 54% 30.32 in 10.0 mi NNE 4.6 mph - N/A   Unknown
9:35 AM 51.8 °F - 33.8 °F 50% 30.32 in 10.0 mi East 4.6 mph - N/A   Unknown
9:55 AM 51.8 °F - 33.8 °F 50% 30.32 in 10.0 mi NE 4.6 mph - N/A   Unknown
10:15 AM 53.6 °F - 33.8 °F 47% 30.32 in 10.0 mi NE 3.5 mph - N/A   Unknown
10:35 AM 55.4 °F - 33.8 °F 44% 30.32 in 10.0 mi Calm Calm - N/A   Unknown
10:55 AM 55.4 °F - 33.8 °F 44% 30.31 in 10.0 mi NNE 4.6 mph - N/A   Unknown
11:15 AM 55.4 °F - 33.8 °F 44% 30.31 in 10.0 mi North 5.8 mph - N/A   Unknown
11:35 AM 57.2 °F - 32.0 °F 38% 30.29 in 10.0 mi North 5.8 mph - N/A   Unknown
11:55 AM 57.2 °F - 32.0 °F 38% 30.29 in 10.0 mi NNE 4.6 mph - N/A   Unknown
12:15 PM 57.2 °F - 30.2 °F 36% 30.28 in 10.0 mi North 5.8 mph - N/A   Unknown
12:35 PM 59.0 °F - 30.2 °F 34% 30.27 in 10.0 mi NNE 4.6 mph - N/A   Unknown
12:55 PM 59.0 °F - 32.0 °F 36% 30.27 in 10.0 mi Calm Calm - N/A   Unknown
1:15 PM 59.0 °F - 32.0 °F 36% 30.26 in 10.0 mi North 6.9 mph - N/A   Unknown
1:35 PM 59.0 °F - 30.2 °F 34% 30.26 in 10.0 mi NNE 8.1 mph - N/A   Unknown
1:55 PM 59.0 °F - 26.6 °F 29% 30.26 in 10.0 mi NNW 9.2 mph - N/A   Unknown
2:15 PM 59.0 °F - 26.6 °F 29% 30.26 in 10.0 mi North 6.9 mph - N/A   Unknown
2:35 PM 60.8 °F - 26.6 °F 27% 30.26 in 10.0 mi North 8.1 mph - N/A   Unknown
2:55 PM 59.0 °F - 23.0 °F 25% 30.26 in 10.0 mi North 9.2 mph - N/A   Unknown
3:15 PM 59.0 °F - 23.0 °F 25% 30.26 in 10.0 mi North 8.1 mph - N/A   Unknown
3:35 PM 59.0 °F - 26.6 °F 29% 30.26 in 10.0 mi NNE 4.6 mph - N/A   Unknown
3:55 PM 57.2 °F - 24.8 °F 29% 30.27 in 10.0 mi NNE 5.8 mph - N/A   Unknown
4:15 PM 55.4 °F - 23.0 °F 29% 30.27 in 10.0 mi North 4.6 mph - N/A   Unknown
4:35 PM 55.4 °F - 23.0 °F 29% 30.28 in 10.0 mi North 4.6 mph - N/A   Unknown
4:55 PM 53.6 °F - 26.6 °F 35% 30.28 in 10.0 mi NNW 4.6 mph - N/A   Unknown
5:15 PM 51.8 °F - 28.4 °F 41% 30.27 in 10.0 mi North 5.8 mph - N/A   Unknown
5:35 PM 51.8 °F - 28.4 °F 41% 30.28 in 10.0 mi NNW 5.8 mph - N/A   Unknown
5:55 PM 51.8 °F - 28.4 °F 41% 30.28 in 10.0 mi North 5.8 mph - N/A   Unknown
6:15 PM 51.8 °F - 28.4 °F 41% 30.28 in 10.0 mi North 6.9 mph - N/A   Unknown
6:35 PM 51.8 °F - 28.4 °F 41% 30.28 in 10.0 mi NNW 5.8 mph - N/A   Unknown
6:55 PM 51.8 °F - 28.4 °F 41% 30.29 in 10.0 mi NNW 6.9 mph - N/A   Unknown
7:15 PM 50.0 °F - 30.2 °F 47% 30.29 in 10.0 mi North 6.9 mph - N/A   Unknown
7:35 PM 46.4 °F 43.5 °F 32.0 °F 57% 30.29 in 10.0 mi North 5.8 mph - N/A   Unknown
7:55 PM 46.4 °F 44.3 °F 32.0 °F 57% 30.30 in 10.0 mi North 4.6 mph - N/A   Unknown
8:15 PM 46.4 °F 44.3 °F 32.0 °F 57% 30.30 in 10.0 mi North 4.6 mph - N/A   Unknown
8:35 PM 44.6 °F 42.2 °F 32.0 °F 61% 30.31 in 10.0 mi NNE 4.6 mph - N/A   Unknown
8:55 PM 44.6 °F 42.2 °F 32.0 °F 61% 30.31 in 10.0 mi NNE 4.6 mph - N/A   Unknown
9:15 PM 42.8 °F 40.1 °F 32.0 °F 66% 30.32 in 10.0 mi NNE 4.6 mph - N/A   Unknown
9:55 PM 44.6 °F 41.4 °F 32.0 °F 61% 30.32 in 10.0 mi NE 5.8 mph - N/A   Unknown
10:15 PM 44.6 °F 41.4 °F 32.0 °F 61% 30.32 in 10.0 mi NE 5.8 mph - N/A   Unknown
10:35 PM 44.6 °F 41.4 °F 32.0 °F 61% 30.32 in 10.0 mi NE 5.8 mph - N/A   Unknown
10:55 PM 42.8 °F 39.3 °F 32.0 °F 66% 30.31 in 10.0 mi NNE 5.8 mph - N/A   Unknown
11:15 PM 42.8 °F 40.1 °F 32.0 °F 66% 30.31 in 10.0 mi NNE 4.6 mph - N/A   Unknown
11:35 PM 42.8 °F 40.1 °F 32.0 °F 66% 30.32 in 10.0 mi NNE 4.6 mph - N/A   Unknown
11:55 PM 42.8 °F 39.3 °F 32.0 °F 66% 30.32 in 10.0 mi NNE 5.8 mph - N/A   Unknown